TimeCDT,TemperatureF,Dew PointF,Humidity,Sea Level PressureIn,VisibilityMPH,Wind Direction,Wind SpeedMPH,Gust SpeedMPH,PrecipitationIn,Events,Conditions,WindDirDegrees,DateUTC
12:15 AM,-9999,-9999,N/A,-9999,-9999.0,North,-9999.0,-,N/A,,Unknown,0,2013-05-28 05:15:00
12:35 AM,-9999,-9999,N/A,-9999,-9999.0,North,-9999.0,-,N/A,,Unknown,0,2013-05-28 05:35:00
12:55 AM,-9999,-9999,N/A,-9999,-9999.0,North,-9999.0,-,N/A,,Unknown,0,2013-05-28 05:55:00
1:15 AM,-9999,-9999,N/A,-9999,-9999.0,North,-9999.0,-,N/A,,Unknown,0,2013-05-28 06:15:00
1:35 AM,-9999,-9999,N/A,-9999,-9999.0,North,-9999.0,-,N/A,,Unknown,0,2013-05-28 06:35:00
1:55 AM,-9999,-9999,N/A,-9999,-9999.0,North,-9999.0,-,N/A,,Unknown,0,2013-05-28 06:55:00
2:15 AM,-9999,-9999,N/A,-9999,-9999.0,North,-9999.0,-,N/A,,Unknown,0,2013-05-28 07:15:00
2:35 AM,-9999,-9999,N/A,-9999,-9999.0,North,-9999.0,-,N/A,,Unknown,0,2013-05-28 07:35:00
2:55 AM,-9999,-9999,N/A,-9999,-9999.0,North,-9999.0,-,N/A,,Unknown,0,2013-05-28 07:55:00
3:15 AM,-9999,-9999,N/A,-9999,-9999.0,North,-9999.0,-,N/A,,Unknown,0,2013-05-28 08:15:00
3:35 AM,-9999,-9999,N/A,-9999,-9999.0,North,-9999.0,-,N/A,,Unknown,0,2013-05-28 08:35:00
3:55 AM,-9999,-9999,N/A,-9999,-9999.0,North,-9999.0,-,N/A,,Unknown,0,2013-05-28 08:55:00
4:15 AM,-9999,-9999,N/A,-9999,-9999.0,North,-9999.0,-,N/A,,Unknown,0,2013-05-28 09:15:00
4:35 AM,-9999,-9999,N/A,-9999,-9999.0,North,-9999.0,-,N/A,,Unknown,0,2013-05-28 09:35:00
4:55 AM,-9999,-9999,N/A,-9999,-9999.0,North,-9999.0,-,N/A,,Unknown,0,2013-05-28 09:55:00
5:15 AM,-9999,-9999,N/A,-9999,-9999.0,North,-9999.0,-,N/A,,Unknown,0,2013-05-28 10:15:00
5:35 AM,-9999,-9999,N/A,-9999,-9999.0,North,-9999.0,-,N/A,,Unknown,0,2013-05-28 10:35:00
5:55 AM,-9999,-9999,N/A,29.75,-9999.0,SSW,13.8,-,N/A,,Unknown,200,2013-05-28 10:55:00
6:15 AM,76.1,68.9,78,29.75,10.0,SSW,15.0,20.7,N/A,,Clear,200,2013-05-28 11:15:00
6:35 AM,76.1,69.1,79,29.75,10.0,SSW,16.1,24.2,N/A,,Clear,200,2013-05-28 11:35:00
6:55 AM,76.1,69.3,79,29.75,10.0,SSW,15.0,24.2,N/A,,Clear,200,2013-05-28 11:55:00
7:15 AM,76.1,69.1,79,29.75,10.0,SSW,17.3,25.3,N/A,,Clear,210,2013-05-28 12:15:00
7:35 AM,76.1,69.1,79,29.75,10.0,SSW,23.0,28.8,N/A,,Clear,210,2013-05-28 12:35:00
7:55 AM,76.1,69.6,80,29.76,10.0,SSW,21.9,27.6,N/A,,Scattered Clouds,210,2013-05-28 12:55:00
8:15 AM,76.1,70.0,81,29.77,10.0,SSW,18.4,26.5,N/A,,Mostly Cloudy,210,2013-05-28 13:15:00
8:35 AM,76.1,70.3,82,29.77,10.0,SSW,20.7,26.5,N/A,,Mostly Cloudy,210,2013-05-28 13:35:00
8:55 AM,76.1,70.0,81,29.77,10.0,SSW,16.1,28.8,N/A,,Overcast,210,2013-05-28 13:55:00
9:15 AM,76.1,69.1,79,29.78,10.0,SSW,20.7,33.4,N/A,,Mostly Cloudy,210,2013-05-28 14:15:00
9:35 AM,76.1,68.7,78,29.78,10.0,SSW,21.9,27.6,N/A,,Mostly Cloudy,210,2013-05-28 14:35:00
9:55 AM,76.1,68.2,76,29.78,10.0,SSW,20.7,29.9,N/A,,Overcast,210,2013-05-28 14:55:00
10:15 AM,76.1,67.8,75,29.79,10.0,SSW,19.6,27.6,N/A,,Overcast,210,2013-05-28 15:15:00
10:35 AM,76.1,67.3,74,29.79,10.0,SSW,19.6,26.5,N/A,,Overcast,210,2013-05-28 15:35:00
10:55 AM,76.1,66.7,73,29.79,10.0,SSW,25.3,31.1,N/A,,Overcast,210,2013-05-28 15:55:00
11:15 AM,76.1,66.7,73,29.80,10.0,SSW,18.4,24.2,N/A,,Mostly Cloudy,210,2013-05-28 16:15:00
11:35 AM,76.1,67.6,75,29.80,10.0,SSW,23.0,33.4,N/A,,Mostly Cloudy,210,2013-05-28 16:35:00
11:55 AM,76.1,68.2,76,29.80,10.0,SSW,18.4,24.2,N/A,,Mostly Cloudy,210,2013-05-28 16:55:00
12:15 PM,76.3,68.0,75,29.79,10.0,SSW,19.6,27.6,N/A,,Mostly Cloudy,200,2013-05-28 17:15:00
12:35 PM,77.4,68.2,73,29.79,10.0,SSW,20.7,25.3,N/A,,Scattered Clouds,210,2013-05-28 17:35:00
12:55 PM,78.3,67.8,70,29.79,10.0,South,12.7,26.5,N/A,,Mostly Cloudy,190,2013-05-28 17:55:00
1:15 PM,78.3,68.2,71,29.79,10.0,SSW,18.4,26.5,N/A,,Overcast,210,2013-05-28 18:15:00
1:35 PM,78.4,67.6,69,29.79,10.0,SSW,20.7,29.9,N/A,,Overcast,200,2013-05-28 18:35:00
1:55 PM,78.8,66.4,66,29.78,10.0,SSW,16.1,26.5,N/A,,Mostly Cloudy,200,2013-05-28 18:55:00
2:15 PM,79.3,66.6,65,29.78,10.0,SSW,23.0,29.9,N/A,,Mostly Cloudy,210,2013-05-28 19:15:00
2:35 PM,78.6,66.2,66,29.78,10.0,SSW,19.6,26.5,N/A,,Mostly Cloudy,200,2013-05-28 19:35:00
2:55 PM,79.2,66.9,66,29.78,10.0,SW,18.4,26.5,N/A,,Mostly Cloudy,220,2013-05-28 19:55:00
3:15 PM,81.1,67.3,63,29.78,10.0,SSW,17.3,28.8,N/A,,Scattered Clouds,210,2013-05-28 20:15:00
3:35 PM,81.5,67.1,61,29.78,10.0,SSW,16.1,25.3,N/A,,Scattered Clouds,210,2013-05-28 20:35:00
3:55 PM,81.3,66.6,61,29.79,10.0,SSW,25.3,29.9,N/A,,Scattered Clouds,210,2013-05-28 20:55:00
4:15 PM,81.0,64.9,58,29.79,10.0,SSW,16.1,29.9,N/A,,Clear,210,2013-05-28 21:15:00
4:35 PM,79.5,65.3,62,29.80,10.0,SSW,15.0,20.7,N/A,,Clear,210,2013-05-28 21:35:00
4:55 PM,78.4,65.5,64,29.78,10.0,South,12.7,17.3,N/A,,Scattered Clouds,190,2013-05-28 21:55:00
5:15 PM,78.4,66.2,66,29.78,10.0,South,11.5,-,N/A,,Clear,190,2013-05-28 22:15:00
5:35 PM,78.4,67.3,68,29.78,10.0,South,9.2,-,N/A,,Clear,190,2013-05-28 22:35:00
5:55 PM,78.4,66.9,68,29.77,10.0,South,11.5,16.1,N/A,,Clear,180,2013-05-28 22:55:00
6:15 PM,78.4,66.7,67,29.77,10.0,South,11.5,-,N/A,,Clear,180,2013-05-28 23:15:00
6:35 PM,78.4,67.1,68,29.77,10.0,SSW,9.2,-,N/A,,Clear,200,2013-05-28 23:35:00
6:55 PM,78.4,68.0,70,29.77,10.0,SW,6.9,-,N/A,,Clear,220,2013-05-28 23:55:00
7:15 PM,78.4,68.4,71,29.76,10.0,SSW,8.1,-,N/A,,Scattered Clouds,210,2013-05-29 00:15:00
7:35 PM,77.7,67.5,71,29.75,10.0,SSW,8.1,-,N/A,,Mostly Cloudy,200,2013-05-29 00:35:00
7:55 PM,77.2,67.1,71,29.75,10.0,South,11.5,-,N/A,,Mostly Cloudy,190,2013-05-29 00:55:00
8:15 PM,77.0,66.7,70,29.76,10.0,SSW,6.9,-,N/A,,Scattered Clouds,210,2013-05-29 01:15:00
8:35 PM,76.1,66.7,73,29.79,10.0,SSW,5.8,-,N/A,,Scattered Clouds,210,2013-05-29 01:35:00
8:55 PM,76.1,67.6,75,29.81,10.0,SSW,8.1,-,N/A,,Scattered Clouds,200,2013-05-29 01:55:00
9:15 PM,76.1,65.7,70,29.82,10.0,SSW,10.4,-,N/A,,Scattered Clouds,210,2013-05-29 02:15:00
9:35 PM,76.1,65.7,70,29.83,10.0,SSW,8.1,-,N/A,,Mostly Cloudy,210,2013-05-29 02:35:00
9:55 PM,76.1,66.2,71,29.83,10.0,SSW,6.9,-,N/A,,Mostly Cloudy,210,2013-05-29 02:55:00
10:15 PM,76.1,66.2,71,29.84,10.0,SSW,6.9,-,N/A,,Scattered Clouds,200,2013-05-29 03:15:00
10:35 PM,76.1,66.6,72,29.84,10.0,SSW,6.9,-,N/A,,Clear,200,2013-05-29 03:35:00
10:55 PM,76.1,67.3,74,29.83,10.0,South,6.9,-,N/A,,Clear,180,2013-05-29 03:55:00
11:15 PM,76.1,67.5,74,29.82,10.0,South,11.5,-,N/A,,Clear,180,2013-05-29 04:15:00
11:35 PM,76.1,66.2,71,29.81,10.0,South,12.7,-,N/A,,Clear,180,2013-05-29 04:35:00
11:55 PM,76.1,65.1,69,29.81,10.0,South,11.5,-,N/A,,Clear,180,2013-05-29 04:55:00